TimeAKST,TemperatureF,Dew PointF,Humidity,Sea Level PressureIn,VisibilityMPH,Wind Direction,Wind SpeedMPH,Gust SpeedMPH,PrecipitationIn,Events,Conditions,WindDirDegrees,DateUTC
12:16 AM,-11.2,-20.2,64,28.75,10.0,ENE,5.8,-,N/A,,Overcast,70,2012-01-25 09:16:00
12:36 AM,-11.2,-13.0,92,28.75,10.0,East,5.8,-,N/A,,Overcast,90,2012-01-25 09:36:00
12:56 AM,-11.2,-23.8,54,28.75,10.0,ENE,4.6,-,N/A,,Mostly Cloudy,60,2012-01-25 09:56:00
1:16 AM,-14.8,-20.2,77,28.76,10.0,NE,3.5,-,N/A,,Partly Cloudy,50,2012-01-25 10:16:00
1:36 AM,-14.8,-23.8,64,28.76,10.0,Calm,Calm,-,N/A,,Partly Cloudy,0,2012-01-25 10:36:00
1:56 AM,-16.6,-23.8,70,28.77,10.0,Calm,Calm,-,N/A,,Clear,0,2012-01-25 10:56:00
2:16 AM,-16.6,-22.0,76,28.77,10.0,ENE,3.5,-,N/A,,Clear,70,2012-01-25 11:16:00
2:36 AM,-16.6,-25.6,64,28.77,10.0,East,4.6,-,N/A,,Scattered Clouds,90,2012-01-25 11:36:00
2:56 AM,-14.8,-20.2,77,28.77,9.0,East,3.5,-,N/A,,Overcast,80,2012-01-25 11:56:00
3:16 AM,-11.2,-14.8,84,28.78,9.0,East,6.9,-,N/A,,Overcast,80,2012-01-25 12:16:00
3:36 AM,-9.4,-16.6,71,28.78,10.0,East,6.9,-,N/A,,Overcast,80,2012-01-25 12:36:00
3:56 AM,-9.4,-13.0,84,28.80,7.0,NNE,3.5,-,N/A,,Overcast,30,2012-01-25 12:56:00
4:16 AM,-9.4,-16.6,71,28.81,7.0,ENE,3.5,-,N/A,,Overcast,60,2012-01-25 13:16:00
4:36 AM,-7.6,-11.2,84,28.81,5.0,Calm,Calm,-,N/A,,Overcast,0,2012-01-25 13:36:00
4:56 AM,-7.6,-14.8,71,28.82,6.0,East,3.5,-,N/A,,Overcast,100,2012-01-25 13:56:00
5:16 AM,-7.6,-9999,N/A,28.82,7.0,ENE,3.5,-,N/A,,Overcast,70,2012-01-25 14:16:00
5:36 AM,-7.6,-11.2,84,28.82,7.0,Calm,Calm,-,N/A,,Overcast,0,2012-01-25 14:36:00
5:56 AM,-7.6,-11.2,84,28.83,7.0,ENE,3.5,-,N/A,,Overcast,70,2012-01-25 14:56:00
6:16 AM,-5.8,-11.2,77,28.84,8.0,East,4.6,-,N/A,,Overcast,90,2012-01-25 15:16:00
6:36 AM,-5.8,-9.4,84,28.85,9.0,East,5.8,-,N/A,,Overcast,80,2012-01-25 15:36:00
6:56 AM,-5.8,-9.4,84,28.86,10.0,East,4.6,-,N/A,,Overcast,90,2012-01-25 15:56:00
7:16 AM,-4.0,-9.4,78,28.87,10.0,East,3.5,-,N/A,,Overcast,80,2012-01-25 16:16:00
7:36 AM,-4.0,-9.4,78,28.88,10.0,ENE,4.6,-,N/A,,Overcast,70,2012-01-25 16:36:00
7:56 AM,-2.2,-7.6,78,28.89,10.0,WNW,3.5,-,N/A,,Overcast,300,2012-01-25 16:56:00
8:16 AM,-2.2,-7.6,78,28.90,9.0,Calm,Calm,-,N/A,,Overcast,0,2012-01-25 17:16:00
8:36 AM,-0.4,-7.6,72,28.91,9.0,Calm,Calm,-,N/A,,Overcast,0,2012-01-25 17:36:00
8:56 AM,5.0,5.0,100,28.93,10.0,SW,5.8,-,N/A,,Overcast,230,2012-01-25 17:56:00
9:16 AM,1.4,-14.8,47,28.94,10.0,Calm,Calm,-,N/A,,Overcast,0,2012-01-25 18:16:00
9:36 AM,1.4,1.4,100,28.95,9.0,Calm,Calm,-,N/A,,Overcast,0,2012-01-25 18:36:00
9:56 AM,1.4,-0.4,92,28.97,8.0,Calm,Calm,-,N/A,,Overcast,0,2012-01-25 18:56:00
10:16 AM,1.4,-4.0,78,28.98,8.0,NE,4.6,-,N/A,,Overcast,40,2012-01-25 19:16:00
10:36 AM,1.4,-2.2,85,28.99,7.0,Calm,Calm,-,N/A,,Overcast,0,2012-01-25 19:36:00
10:56 AM,1.4,-2.2,85,29.00,7.0,South,4.6,-,N/A,,Overcast,190,2012-01-25 19:56:00
11:16 AM,5.0,1.4,85,29.01,8.0,SW,3.5,-,N/A,,Overcast,230,2012-01-25 20:16:00
11:36 AM,6.8,3.2,85,29.03,7.0,SW,4.6,-,N/A,,Overcast,220,2012-01-25 20:36:00
11:56 AM,6.8,1.4,79,29.04,7.0,SSW,4.6,-,N/A,,Overcast,200,2012-01-25 20:56:00
12:16 PM,6.8,1.4,79,29.05,7.0,Calm,Calm,-,N/A,,Overcast,0,2012-01-25 21:16:00
12:36 PM,6.8,3.2,85,29.06,7.0,South,5.8,-,N/A,,Overcast,180,2012-01-25 21:36:00
12:56 PM,6.8,1.4,79,29.07,7.0,SSW,5.8,-,N/A,,Overcast,200,2012-01-25 21:56:00
1:16 PM,6.8,-0.4,72,29.08,7.0,South,5.8,-,N/A,,Overcast,190,2012-01-25 22:16:00
1:36 PM,6.8,3.2,85,29.10,7.0,South,6.9,-,N/A,,Overcast,180,2012-01-25 22:36:00
1:56 PM,6.8,1.4,79,29.11,7.0,South,5.8,-,N/A,,Overcast,190,2012-01-25 22:56:00
2:16 PM,6.8,1.4,79,29.12,6.0,SSW,6.9,-,N/A,,Overcast,200,2012-01-25 23:16:00
2:36 PM,6.8,1.4,79,29.13,5.0,South,8.1,-,N/A,,Overcast,190,2012-01-25 23:36:00
2:56 PM,6.8,-0.4,72,29.14,6.0,South,9.2,-,N/A,,Overcast,190,2012-01-25 23:56:00
3:16 PM,6.8,-0.4,72,29.15,4.0,SSW,6.9,-,N/A,,Overcast,200,2012-01-26 00:16:00
3:36 PM,5.0,-0.4,78,29.15,3.0,SSW,5.8,-,N/A,,Overcast,210,2012-01-26 00:36:00
3:56 PM,5.0,-0.4,78,29.16,3.0,SSW,6.9,-,N/A,,Overcast,200,2012-01-26 00:56:00
4:16 PM,5.0,-0.4,78,29.17,4.0,South,4.6,-,N/A,,Overcast,190,2012-01-26 01:16:00
4:36 PM,5.0,-2.2,72,29.17,5.0,South,5.8,-,N/A,,Overcast,190,2012-01-26 01:36:00
4:56 PM,5.0,-0.4,78,29.19,5.0,WSW,4.6,-,N/A,,Overcast,240,2012-01-26 01:56:00
5:16 PM,5.0,-0.4,78,29.20,5.0,Calm,Calm,-,N/A,,Overcast,0,2012-01-26 02:16:00
5:36 PM,3.2,-0.4,85,29.20,5.0,SW,3.5,-,N/A,,Overcast,220,2012-01-26 02:36:00
5:56 PM,3.2,-0.4,85,29.21,7.0,SW,4.6,-,N/A,,Overcast,230,2012-01-26 02:56:00
6:16 PM,3.2,-0.4,85,29.22,7.0,West,5.8,-,N/A,,Overcast,280,2012-01-26 03:16:00
6:36 PM,3.2,-0.4,85,29.22,8.0,West,5.8,-,N/A,,Overcast,280,2012-01-26 03:36:00
6:56 PM,3.2,-0.4,85,29.22,7.0,WSW,4.6,-,N/A,,Overcast,250,2012-01-26 03:56:00
7:36 PM,3.2,-0.4,85,29.23,7.0,West,4.6,-,N/A,,Overcast,260,2012-01-26 04:36:00
7:56 PM,3.2,1.4,92,29.24,7.0,West,6.9,-,N/A,,Overcast,270,2012-01-26 04:56:00
8:16 PM,3.2,-0.4,85,29.25,7.0,West,5.8,-,N/A,,Overcast,270,2012-01-26 05:16:00
8:36 PM,3.2,-0.4,85,29.26,7.0,WNW,5.8,-,N/A,,Overcast,290,2012-01-26 05:36:00
8:56 PM,1.4,-0.4,92,29.26,4.0,West,6.9,-,N/A,,Overcast,280,2012-01-26 05:56:00
9:16 PM,1.4,-2.2,85,29.27,4.0,WSW,4.6,-,N/A,,Overcast,250,2012-01-26 06:16:00
9:36 PM,1.4,-0.4,92,29.28,3.0,Calm,Calm,-,N/A,,Overcast,0,2012-01-26 06:36:00
9:56 PM,1.4,-0.4,92,29.28,2.0,SSW,3.5,-,N/A,,Overcast,210,2012-01-26 06:56:00
10:16 PM,1.4,-0.4,92,29.29,5.0,SW,3.5,-,N/A,,Overcast,230,2012-01-26 07:16:00
10:36 PM,1.4,-2.2,85,29.30,7.0,Calm,Calm,-,N/A,,Overcast,0,2012-01-26 07:36:00
10:56 PM,1.4,-2.2,85,29.31,5.0,WSW,3.5,-,N/A,,Mostly Cloudy,240,2012-01-26 07:56:00
11:16 PM,1.4,-2.2,85,29.31,2.5,Calm,Calm,-,N/A,,Overcast,0,2012-01-26 08:16:00
11:36 PM,1.4,-0.4,92,29.32,8.0,Calm,Calm,-,N/A,,Overcast,0,2012-01-26 08:36:00
11:56 PM,1.4,-2.2,85,29.33,8.0,Calm,Calm,-,N/A,,Overcast,0,2012-01-26 08:56:00